Red Bluff, CA

4:28 AM PST on January 19, 2017 (GMT -0800)
Red Bluff Municipal

Weather History for KRBL - May, 2013

Change the Weather History Date:

Monday, May 6, 2013

  Actual Average Record
Temperature  
Mean Temperature 62 °F -  
Max Temperature 68 °F 78 °F 101 °F (1987)
Min Temperature 54 °F 51 °F 39 °F (1983)
Degree Days  
Heating Degree Days 4    
Growing Degree Days 12 (Base 50)    
Moisture  
Dew Point 51 °F    
Average Humidity 68    
Maximum Humidity 90    
Minimum Humidity 46    
Precipitation  
Precipitation 0.03 in - - ()
Sea Level Pressure  
Sea Level Pressure 29.88 in    
Wind  
Wind Speed 6 mph (SSE)    
Max Wind Speed 17 mph    
Max Gust Speed -    
Visibility 10 miles    
Events Rain    
Averages and records for this station are not official NWS values.
T = Trace of Precipitation, MM = Missing Value Source: NWS Daily Summary

Daily Weather History Graph

Daily Weather History Graph

Search for Another Location

Airport or City:

Trip Planner

Search our weather history database for the weather conditions in past years. The results will help you decide how hot, cold, wet, or windy it might be!

Date:

Astronomy

May. 06, 2013 Rise Set
Actual Time 6:02 AM PDT 8:09 PM PDT
Civil Twilight 5:32 AM PDT 8:39 PM PDT
Nautical Twilight 4:55 AM PDT 9:16 PM PDT
Astronomical Twilight 4:16 AM PDT 9:56 PM PDT
Moon 4:07 AM PDT (5/6) 5:14 PM PDT (5/6)
Length of Visible Light 15h 06m
Length of Day
14h 07m
Waning Crescent, 10% of the Moon is Illuminated
May 6
Waning Crescent
May 9
New
May 17
First Quarter
May 24
Full
May 31
Last Quarter

Hourly Weather History & Observations

Time (PDT) Temp. Dew Point Humidity Pressure Visibility Wind Dir Wind Speed Gust Speed Precip Events Conditions
12:54 AM 64.0 °F 46.9 °F 54% 29.80 in 10.0 mi Calm Calm - N/A   Scattered Clouds
1:54 AM 63.0 °F 46.9 °F 56% 29.81 in 10.0 mi NNE 3.5 mph - N/A   Overcast
2:54 AM 61.0 °F 51.1 °F 70% 29.80 in 10.0 mi NW 3.5 mph - 0.01 in   Overcast
3:54 AM 61.0 °F 50.0 °F 67% 29.80 in 10.0 mi NW 5.8 mph - N/A   Clear
4:54 AM 62.1 °F 48.9 °F 62% 29.81 in 10.0 mi Calm Calm - N/A   Overcast
5:54 AM 61.0 °F 48.0 °F 62% 29.81 in 10.0 mi West 4.6 mph - N/A   Partly Cloudy
6:54 AM 61.0 °F 48.9 °F 64% 29.83 in 10.0 mi Calm Calm - N/A   Scattered Clouds
7:54 AM 62.1 °F 48.9 °F 62% 29.85 in 10.0 mi SSE 11.5 mph - N/A   Scattered Clouds
8:54 AM 61.0 °F 50.0 °F 67% 29.88 in 10.0 mi SSE 12.7 mph - 0.00 in Rain Light Rain
9:54 AM 62.1 °F 54.0 °F 75% 29.89 in 10.0 mi SSE 13.8 mph - 0.03 in   Overcast
10:11 AM 62.6 °F 53.6 °F 72% 29.91 in 10.0 mi SSE 17.3 mph - N/A   Overcast
10:54 AM 61.0 °F 53.1 °F 75% 29.91 in 10.0 mi South 17.3 mph - N/A   Overcast
11:54 AM 61.0 °F 53.1 °F 75% 29.92 in 10.0 mi SSE 13.8 mph - N/A   Overcast
12:02 PM 60.8 °F 51.8 °F 72% 29.92 in 10.0 mi South 12.7 mph - N/A   Overcast
12:54 PM 60.1 °F 52.0 °F 75% 29.93 in 10.0 mi SSE 11.5 mph - N/A   Overcast
1:54 PM 60.1 °F 53.1 °F 78% 29.93 in 10.0 mi SE 13.8 mph - 0.00 in Rain Light Rain
2:29 PM 60.8 °F 53.6 °F 77% 29.94 in 10.0 mi SE 9.2 mph - 0.00 in   Overcast
2:41 PM 60.8 °F 53.6 °F 77% 29.93 in 10.0 mi SE 9.2 mph - 0.00 in   Overcast
2:54 PM 61.0 °F 53.1 °F 75% 29.92 in 10.0 mi SE 9.2 mph - 0.00 in   Overcast
3:54 PM 62.1 °F 51.1 °F 67% 29.90 in 10.0 mi SSE 5.8 mph - N/A   Overcast
4:54 PM 66.0 °F 50.0 °F 56% 29.88 in 10.0 mi Variable 3.5 mph - N/A   Clear
5:54 PM 66.9 °F 48.9 °F 52% 29.88 in 10.0 mi Calm Calm - N/A   Clear
6:54 PM 66.9 °F 48.9 °F 52% 29.87 in 10.0 mi North 8.1 mph - N/A   Partly Cloudy
7:54 PM 62.1 °F 52.0 °F 70% 29.89 in 10.0 mi North 9.2 mph - N/A   Clear
8:54 PM 59.0 °F 52.0 °F 78% 29.90 in 10.0 mi NNW 4.6 mph - N/A   Clear
9:54 PM 57.0 °F 52.0 °F 83% 29.93 in 10.0 mi NW 5.8 mph - N/A   Clear
10:54 PM 55.9 °F 51.1 °F 84% 29.94 in 10.0 mi Calm Calm - N/A   Clear
11:54 PM 54.0 °F 51.1 °F 90% 29.94 in 10.0 mi North 3.5 mph - N/A   Clear